IUS DEB, 43364

Orbit data source: Space-Track

IUS DEB, 43364 is space debris originally from a launch on Fri, 23 Jul 1999 UTC launched from the Air Force Eastern Test Range (AFETR). Debris objects in space refer to the collection of defunct objects orbiting the Earth. Examples of debris include non-operational satellites, rocket bodies, and fragments generated from explosions, collisions, or faulty payload assembly.

Loading next visibility...
Identifier
43364, 1999-040M
Orbit
Active
Country
Flag of USUS
Related business
Manufacturer
Boeing/Kent
Mission
Spacecraft
Bus & Motor
Unknown
Mass
Unknown
Launch date (UTC)
1999-07-23 (26 years ago)
Launch vehicle
Unknown
Launch site
Air Force Eastern Test Range (AFETR)
Object type
Payload
Rocket body
Debris
Shape & HBR
Unknown shape, 0.1 m
Radar Cross Section
Small (<0.1 m²)

Expand to show TLE details & history
Last TLE update: 2 months ago

TLE from 2 months ago
0 IUS DEB
1 43364U 99040M   25230.24130993  .00001102  00000-0  80042-2 0  9995
2 43364  28.1006  79.9675 3744924 220.0779 105.3093  7.02423671117701
Epoch: 2025-08-18T05:47Z
TLE epoch observation values (Epoch: 2025-08-18T05:47:29.177Z)
Latitude
Longitude
26.24527°
Altitude
7,501.608 km
Speed
4.779 km/s
True Right ascension
05h 19m 52s
True Declination
0° 00' 00"
Sunlit
Object was in daylight at epoch
Visualization orbit readout
Latitude
Unknown
Longitude
Unknown
Altitude
Unknown
Speed
Unknown
Apparent Right ascension
Unknown
Apparent Declination
Unknown
Sunlit
N/A
Visualization observer readout
Local Sidereal Time
13:19:46
Azimuth
Unknown
Elevation
Unknown
Doppler factor
Unknown
Orbital elements
Apogee altitude
9,456.17 km
Perigee altitude
827.781 km
Semi-major axis
11,520.112 km
Eccentricity
0.37449
Inclination
28.1006°
RAAN
79.9675°
Arg. of periapsis
220.0779°
True anomaly
139.96134°
Mean anomaly
105.3093°
Eccentric anomaly
123.25278°
Mean motion
1.75533 °/min
Orbital period
205.09 mins
BSTAR
0.0080042
Loading maneuver chart data...
Computing Atmospheric mass density...
Loading historical data...
Loading historical data...
Loading historical data...
Loading historical data...
Loading historical data...
Loading historical data...
Loading historical data...

Documentation

Showing up to 5 results
|